Simultaneous Nadir Overpasses (SNOs) Predictions

Prediction of SNOs between LANDSAT-8 and NPP Satellite Orbit:

Table of predicted SNOs for the next 14.0 days since TLE Epoch: 2/21/2015
Index Date (LANDSAT-8) Time (LANDSAT-8) Lat,Lon (LANDSAT-8) SZA (LANDSAT-8 ) Date (NPP) Time (NPP) Lat,Lon (NPP) SZA (NPP ) Distance(km) Time Diff (sec)
1 02/23/2015 10:34:20 -70.76,-161.35 99.38 02/23/2015 10:33:32 -70.76,-161.37 99.37 0.89 48
2 02/23/2015 11:23:47 70.65, 6.14 80.51 02/23/2015 11:24:16 70.64, 6.13 80.50 1.33 29
3 02/26/2015 02:01:05 71.59, 148.23 80.44 02/26/2015 01:59:59 71.67, 145.52 80.62 95.26 66
4 02/26/2015 02:50:49 -70.72, -45.52 100.41 02/26/2015 02:50:25 -70.74, -45.58 100.38 2.99 24
5 02/26/2015 03:40:16 70.62, 121.96 79.48 02/26/2015 03:41:09 70.63, 121.91 79.49 2.39 53
6 02/28/2015 18:17:47 70.77, -97.20 78.65 02/28/2015 18:16:34 70.77, -97.18 78.66 0.87 73
7 02/28/2015 19:07:17 -70.67, 70.27 101.47 02/28/2015 19:07:16 -70.68, 70.29 101.46 1.72 1
8 02/28/2015 19:56:46 70.45,-122.41 78.32 02/28/2015 19:57:58 70.47,-122.06 78.31 13.24 72
9 03/03/2015 10:34:15 70.75, 18.64 77.60 03/03/2015 10:33:27 70.77, 18.59 77.63 2.95 48
10 03/03/2015 11:23:45 -70.64,-173.89 102.52 03/03/2015 11:24:08 -70.62,-173.84 102.54 2.86 23
11 03/06/2015 02:50:43 70.70, 134.45 76.52 03/06/2015 02:50:19 70.72, 134.44 76.55 2.11 24
12 03/06/2015 03:40:13 -70.60, -58.07 103.60 03/06/2015 03:41:01 -70.62, -58.08 103.58 2.62 48
